FW0633 Weather Reports


Display with metric or nautical units.
time (UTC)temp
F
wind
direction
speed
MPH
gust
MPH
rain 1hr
in
rain 24hr
in
rain mn
in
humidity
%
barometer
mb
20260508010005 80 348 2.0 3.0 0.00 0.00 0.00 10 1033.1
20260508004506 82 302 1.0 6.0 0.00 0.00 0.00 10 1033.0
20260508003006 83 274 0.0 3.0 0.00 0.00 0.00 10 1033.1
20260508001506 80 21 1.0 4.0 0.00 0.00 0.00 11 1033.2
20260508000005 82 288 1.0 4.0 0.00 0.00 0.00 10 1033.4
20260507234505 82 262 1.0 4.0 0.00 0.00 0.00 10 1033.4
20260507233005 81 301 2.0 7.0 0.00 0.00 0.00 10 1033.5
20260507231505 82 348 1.0 6.0 0.00 0.00 0.00 11 1033.6
20260507230005 81 285 1.0 4.0 0.00 0.00 0.00 11 1033.6
20260507224505 79 13 2.0 6.0 0.00 0.00 0.00 13 1033.8
20260507223006 79 88 3.0 6.0 0.00 0.00 0.00 11 1034.0
20260507221526 79 56 3.0 9.0 0.00 0.00 0.00 10 1034.1
20260507220005 80 6 3.0 7.0 0.00 0.00 0.00 9 1034.4
20260507214526 81 257 3.0 7.0 0.00 0.00 0.00 11 1034.4
20260507213005 81 284 2.0 6.0 0.00 0.00 0.00 11 1034.8
20260507211505 81 321 2.0 7.0 0.00 0.00 0.00 11 1034.9
20260507210005 79 92 1.0 3.0 0.00 0.00 0.00 11 1035.2
20260507204505 78 93 3.0 7.0 0.00 0.00 0.00 13 1035.4
20260507203005 78 23 2.0 6.0 0.00 0.00 0.00 14 1035.7
20260507201505 78 19 1.0 4.0 0.00 0.00 0.00 15 1035.8
20260507200006 76 108 4.0 8.0 0.00 0.00 0.00 17 1036.0
20260507194505 77 1 2.0 10.0 0.00 0.00 0.00 13 1036.2
20260507193005 75 103 3.0 8.0 0.00 0.00 0.00 18 1036.4
20260507191505 75 87 3.0 8.0 0.00 0.00 0.00 17 1036.7
20260507190006 75 26 3.0 9.0 0.00 0.00 0.00 17 1036.9
20260507184527 74 37 4.0 9.0 0.00 0.00 0.00 18 1037.0
20260507183027 73 101 3.0 8.0 0.00 0.00 0.00 20 1037.0
20260507181504 73 74 2.0 7.0 0.00 0.00 0.00 21 1037.2
20260507180006 73 80 4.0 9.0 0.00 0.00 0.00 20 1037.4
20260507174504 74 36 1.0 5.0 0.00 0.00 0.00 20 1037.5
20260507173005 72 16 2.0 6.0 0.00 0.00 0.00 22 1037.6
20260507171504 72 23 2.0 6.0 0.00 0.00 0.00 22 1037.6
20260507170005 70 33 3.0 7.0 0.00 0.00 0.00 23 1037.7
20260507164505 68 97 3.0 6.0 0.00 0.00 0.00 24 1037.8
20260507163004 68 98 2.0 6.0 0.00 0.00 0.00 24 1038.0
20260507161504 66 59 2.0 6.0 0.00 0.00 0.00 24 1038.0
20260507160005 66 92 2.0 4.0 0.00 0.00 0.00 25 1038.1
20260507154504 65 109 2.0 4.0 0.00 0.00 0.00 26 1038.3
20260507153026 64 101 2.0 5.0 0.00 0.00 0.00 27 1038.3
20260507151504 64 124 1.0 3.0 0.00 0.00 0.00 31 1038.3
20260507150005 63 66 1.0 2.0 0.00 0.00 0.00 35 1038.5
20260507144504 63 120 0.0 1.0 0.00 0.00 0.00 34 1038.6
20260507143004 59 210 0.0 1.0 0.00 0.00 0.00 44 1038.6
20260507141525 56 210 0.0 1.0 0.00 0.00 0.00 46 1038.5
20260507140006 53 210 0.0 1.0 0.00 0.00 0.00 49 1038.5
20260507134504 49 259 0.0 1.0 0.00 0.00 0.00 54 1038.4
20260507133004 47 273 0.0 2.0 0.00 0.00 0.00 56 1038.1
20260507131504 45 271 0.0 2.0 0.00 0.00 0.00 59 1038.0
20260507130025 43 289 0.0 1.0 0.00 0.00 0.00 62 1037.9
20260507124504 42 234 0.0 1.0 0.00 0.00 0.00 63 1037.9
20260507123025 42 251 0.0 1.0 0.00 0.00 0.00 64 1037.8
20260507121504 42 244 0.0 1.0 0.00 0.00 0.00 63 1037.9
20260507120025 43 251 0.0 1.0 0.00 0.00 0.00 61 1037.9
20260507114504 43 277 0.0 1.0 0.00 0.00 0.00 62 1037.9
20260507113005 44 262 0.0 1.0 0.00 0.00 0.00 62 1038.0
20260507111506 44 282 0.0 1.0 0.00 0.00 0.00 61 1038.0
20260507110004 44 274 0.0 1.0 0.00 0.00 0.00 60 1038.0
20260507104504 45 250 0.0 1.0 0.00 0.00 0.00 60 1038.0
20260507103004 45 280 0.0 1.0 0.00 0.00 0.00 60 1038.0
20260507101504 45 260 0.0 1.0 0.00 0.00 0.00 59 1037.8
20260507100004 46 275 0.0 1.0 0.00 0.00 0.00 58 1037.8
20260507094504 46 274 0.0 2.0 0.00 0.00 0.00 58 1037.8
20260507093025 46 253 0.0 1.0 0.00 0.00 0.00 58 1037.8
20260507091503 46 278 0.0 1.0 0.00 0.00 0.00 58 1037.8
20260507090005 47 0 0.0 0.0 0.00 0.00 0.00 57 1037.8
20260507084504 48 255 0.0 1.0 0.00 0.00 0.00 56 1037.8
20260507083025 50 248 0.0 1.0 0.00 0.00 0.00 52 1037.9
20260507081504 51 0 0.0 0.0 0.00 0.00 0.00 50 1037.8
20260507080025 53 239 0.0 1.0 0.00 0.00 0.00 48 1037.7
20260507074503 53 230 0.0 1.0 0.00 0.00 0.00 47 1037.6
20260507073004 54 227 0.0 2.0 0.00 0.00 0.00 46 1037.5
20260507071504 54 240 0.0 3.0 0.00 0.00 0.00 45 1037.5
20260507070007 54 213 0.0 3.0 0.00 0.00 0.00 45 1037.5
20260507064505 55 218 0.0 4.0 0.00 0.00 0.00 45 1037.5
20260507063003 55 230 0.0 3.0 0.00 0.00 0.00 44 1037.4
20260507061503 56 212 1.0 7.0 0.00 0.00 0.00 43 1037.2
20260507060004 56 224 0.0 3.0 0.00 0.00 0.00 43 1037.2
20260507054525 56 212 1.0 3.0 0.00 0.00 0.00 43 1037.1
20260507053004 57 224 1.0 4.0 0.00 0.00 0.00 41 1037.1
20260507051503 57 224 1.0 3.0 0.00 0.00 0.00 41 1036.9
20260507050003 57 224 0.0 3.0 0.00 0.00 0.00 41 1036.8
20260507044503 58 223 0.0 2.0 0.00 0.00 0.00 41 1036.6
20260507043003 58 224 1.0 3.0 0.00 0.00 0.00 40 1036.6
20260507041527 58 229 1.0 3.0 0.00 0.00 0.00 40 1036.4
20260507040007 59 228 1.0 6.0 0.00 0.00 0.00 38 1036.2
20260507034506 60 234 1.0 4.0 0.00 0.00 0.00 38 1036.0
20260507033006 61 242 1.0 5.0 0.00 0.00 0.00 37 1035.8
20260507031505 61 241 2.0 8.0 0.00 0.00 0.00 36 1035.6
20260507030027 62 226 2.0 6.0 0.00 0.00 0.00 36 1035.5
20260507024505 63 234 2.0 5.0 0.00 0.00 0.00 35 1035.2
20260507023006 63 234 1.0 6.0 0.00 0.00 0.00 34 1035.0
20260507021505 64 267 2.0 6.0 0.00 0.00 0.00 33 1034.6
20260507020006 66 272 2.0 6.0 0.00 0.00 0.00 32 1034.4
20260507014506 67 282 2.0 8.0 0.00 0.00 0.00 30 1034.3
20260507013006 69 287 3.0 7.0 0.00 0.00 0.00 28 1034.1
20260507011505 72 280 2.0 6.0 0.00 0.00 0.00 26 1034.1